Regional Weather Roundup
Issued by NWS Northern Indiana

Home | Current Version | Previous Version | Graphics & Text | Print | Product List | Glossary On
Versions: 1 2 3 4 5 6 7 8 9 10 11 12 13 14 15 16 17 18 19 20 21 22 23 24 25 26 27 28 29 30 31 32 33 34 35 36 37 38 39 40 41 42 43 44 45 46 47 48 49 50
000
ASUS43 KIWX 230210
RWRIWX

KIWX WEATHER ROUNDUP
NATIONAL WEATHER SERVICE NORTHERN INDIANA
1000 PM EDT WED MAR 22 2017

NOTE: "FAIR" INDICATES FEW OR NO CLOUDS BELOW 12,000 FEET WITH NO
SIGNIFICANT WEATHER AND/OR OBSTRUCTIONS TO VISIBILITY.

* THESE STATIONS ARE NOT UNDER NWS QUALITY CONTROL. THEY ALSO MAY NOT
  REPORT WEATHER SUCH AS PRECIPITATION OR FOG.

INZ001>027-230300-
NORTHERN INDIANA

CITY           SKY/WX    TMP DP  RH WIND       PRES   REMARKS
GARY*          MOCLDY    32  21  64 E10       30.51S WCI  24
VALPARAISO     CLOUDY    30  22  72 NE3       30.49S
MICHIGAN CITY* PTCLDY    30  23  74 CALM      30.51S
LAPORTE*       PTCLDY    29  21  71 NE3       30.50S
KNOX*          CLOUDY    32  -6  19 CALM      30.49S
SOUTH BEND     PTCLDY    32  13  45 E5        30.50S WCI  27
GOSHEN         PTCLDY    31  13  47 SE5       30.50R WCI  26
MONTICELLO*    CLEAR     32  18  57 E3        30.48S
LOGANSPORT*    CLEAR     30  21  69 E6        30.50R WCI  24
ROCHESTER*     CLOUDY    32  19  59 E6        30.50R WCI  26
WARSAW*        PTCLDY    30  18  59 SE3       30.49F
ANGOLA*        CLEAR     28  16  59 SE5       30.50R WCI  23
FORT WAYNE     MOCLDY    30  18  60 E7        30.51R WCI  23
HUNTINGTON*    CLOUDY    30  17  59 E5        30.50F WCI  25
PERU/GRISSOM   PTCLDY    32  18  56 E7        30.47S WCI  26
MARION*        CLOUDY    31  21  65 E5        30.49F WCI  26

$$
INZ028>050-230300-
CENTRAL INDIANA

CITY           SKY/WX    TMP DP  RH WIND       PRES   REMARKS
LAFAYETTE      CLEAR     32  20  61 E12       30.48R WCI  23
KOKOMO*        PTCLDY    31  24  75 E9        30.49S WCI  23
MUNCIE*        CLOUDY    32  21  64 E8        30.48S WCI  25
INDIANAPOLIS   PTCLDY    35  20  54 E12       30.46R WCI  27

$$
MIZ043>046-050>051-056>058-064>065-071>073-077>080-230300-
SOUTHWEST LOWER MICHIGAN

CITY           SKY/WX    TMP DP  RH WIND       PRES   REMARKS
BATTLE CREEK   CLOUDY    32  10  40 E3        30.50S
BENTON HARBOR  PTCLDY    28  18  66 CALM      30.50F
COLDWATER*     PTCLDY    29  13  51 E3        30.50S
HILLSDALE*     CLOUDY    30  12  47 CALM      30.49R
HOLLAND        PTCLDY    29  16  58 NE3       30.51F
GRAND RAPIDS   PTCLDY    29  10  45 SE8       30.50S WCI  21
KALAMAZOO      CLOUDY    31  11  43 SE3       30.51R
STURGIS*       PTCLDY    29  14  54 E5        30.49S WCI  23
THREE RIVERS*  FAIR      29  18  61 CALM      30.50F

$$
OHZ001>008-015>018-024>025-230300-
NORTHWEST OHIO

CITY           SKY/WX    TMP DP  RH WIND       PRES   REMARKS
WAUSEON*       FAIR      28  18  64 SE8       30.53R WCI  20
DEFIANCE       CLOUDY    28  14  55 E5        30.54R WCI  23
FINDLAY        CLOUDY    28  14  55 E7        30.52R WCI  21
TOLEDO EXPRESS CLOUDY    27  14  58 SE5       30.53S WCI  22
TOLEDO METCALF PTCLDY    26  17  68 E3        30.55S
LIMA           CLOUDY    27  18  69 E9        30.51R WCI  18

$$
AND FOR LAKE MICHIGAN COASTAL AND OPEN LAKE BUOY OBSERVATIONS

STATION/POSITION TEMP    WIND        PRES    VSBY  WAVE
                 AIR SEA DIR/SP/G                  HT/PER
                 (F)     (DEG/KT/KT) (MB)    (MI)  (FT/S)
CALUMET HARBOR    31      60/  7/  9 1032.0F
MICHIGAN CITY     31      70/  7/  9   N/A
BURNS HARBOR      31      60/ 12/ 14 1033.2S
SAINT JOSEPH      29      60/  2/  5 1033.5

$$
&&




USA.gov is the U.S. government's official web portal to all federal, state and local government web resources and services.